Home   Weather   São Paulo   Past weeks

Flag for Brazil Past Weather in São Paulo, São Paulo, Brazil — Yesterday and Last 2 Weeks

Now
63 °F

Sunny.


Feels Like: 63 °F
Forecast: 54 / 71 °F
Wind: 7 mph from Northeast

Location: Sao Paulo Airport

Current Time: Jul 20, 2017 at 11:50:23 am

Latest Report: Jul 20, 2017 at 11:00 am


Visibility: 10 mi

Pressure: 30.30 "Hg (27.69 "Hg at 765m altitude)

Humidity: 68%

Dew Point: 52 °F

Location of São PauloLocation

Past Weather in São Paulo — Graph

°F

São Paulo Temperature Yesterday

Maximum temperature yesterday: 55 °F (at 3:00 pm)
Minimum temperature yesterday: 46 °F (at 12:00 am)
Average temperature yesterday: 51 °F

High & Low Weather Summary for the Past Weeks

 TemperatureHumidityPressure
High77 °F (Jul 17, 1:00 pm)93% (Jul 18, 9:00 pm)30.51 "Hg (Jul 18, 9:00 pm)
Low45 °F (Jul 18, 9:00 pm)32% (Jul 17, 2:00 pm)30.15 "Hg (Jul 15, 3:00 pm)
Average61 °F71%30.31 "Hg
* Reported Jul 5 10:00 am — Jul 20 10:00 am, São Paulo. Weather by CustomWeather, © 2017

Note: Actual official high and low records may vary slightly from our data, if they occured in-between our weather recording intervals... More about our weather records

Advertising

São Paulo Weather History for the Previous 24 Hours

Scroll right to see more
 ConditionsComfort  
Time TempWeatherWind HumidityBarometerVisibility
10:00 am
Thu, Jul 20
59 °FPassing clouds.7 mph72%30.30 "HgN/A
9:00 am57 °FBroken clouds.6 mph77%30.30 "HgN/A
8:00 am55 °FMore clouds than sun.5 mph82%30.27 "HgN/A
7:00 am55 °FLow clouds.7 mph82%30.27 "HgN/A
6:00 am55 °FMostly cloudy.8 mph82%30.27 "HgN/A
5:00 am55 °FOvercast.6 mph82%30.24 "HgN/A
4:35 am55 °FOvercast.5 mph82%30.24 "HgN/A
4:00 am54 °FLow clouds.6 mph88%30.27 "HgN/A
3:00 am54 °FMostly cloudy.6 mph88%30.27 "Hg5 mi
2:00 am54 °FMostly cloudy.7 mph88%30.30 "Hg6 mi
1:18 am54 °FOvercast.7 mph88%30.30 "Hg6 mi
1:01 am54 °FOvercast.6 mph88%30.30 "HgN/A
12:44 am54 °FMostly cloudy.7 mph88%30.30 "Hg6 mi
12:00 am54 °FMostly cloudy.8 mph88%30.30 "HgN/A
11:41 pm
Wed, Jul 19
54 °FMostly cloudy.9 mph88%30.30 "HgN/A
11:25 pm54 °FMostly cloudy.8 mph88%30.30 "HgN/A
11:01 pm54 °FMostly cloudy.9 mph88%30.30 "HgN/A
10:00 pm54 °FPassing clouds.9 mph88%30.33 "HgN/A
9:00 pm54 °FPassing clouds.9 mph88%30.33 "Hg6 mi
8:00 pm54 °FMostly cloudy.9 mph88%30.33 "Hg6 mi
7:00 pm54 °FMostly cloudy.8 mph88%30.30 "Hg4 mi
6:00 pm55 °FPartly cloudy.9 mph82%30.30 "HgN/A
5:00 pm55 °FPartly sunny.9 mph82%30.27 "HgN/A
4:00 pm55 °FOvercast.8 mph77%30.27 "HgN/A
3:00 pm55 °FOvercast.9 mph77%30.30 "HgN/A
2:00 pm54 °FLow clouds.9 mph82%30.30 "HgN/A
1:00 pm54 °FLow clouds.9 mph82%30.33 "HgN/A
12:00 pm54 °FMore clouds than sun.8 mph82%30.36 "HgN/A
11:00 am52 °FMore clouds than sun.12 mph88%30.39 "HgN/A
Weather by CustomWeather, © 2017

See weather overviewHow to use our weather pages